STARLINK-36344

Last updated on Tue Mar 10 2026 00:02:05 GMT+0000 (Coordinated Universal Time)

1 67710U 26025T 26068.29982729 .00112297 00000+0 74360-3 0 9990 2 67710 97.2849 179.9339 0001616 55.0605 305.0812 15.75198995 5898
UTC large
Height (km)
Speed (km/s)
/
Latitude / Longitude
Inclination (degrees)
Orbital Period (minutes)
Azimuth
Elevation
Range (km)
Doppler Factor

Next 0 passes for location: London (51.5072 / 0.1276)

Sorry there are no passes over London.